DW9572 Weather Reports


time (UTC)temp
C
wind
direction
speed
KPH
gust
KPH
rain 1hr
cm
rain 24hr
cm
rain mn
cm
humidity
%
barometer
mb
20260831211526 27 29 11.3 27.4 0.00 0.00 0.00 26 1010.0
20260831210023 26 87 22.5 27.4 0.00 0.00 0.00 26 1010.2
20260831204505 26 21 12.9 20.9 0.00 0.00 0.00 27 1010.5
20260831203059 26 87 22.5 29.0 0.00 0.00 0.00 28 1010.8
20260831201547 26 96 20.9 32.2 0.00 0.00 0.00 28 1011.0
20260831200042 26 101 22.5 32.2 0.00 0.00 0.00 29 1011.3
20260831194532 25 104 11.3 22.5 0.00 0.00 0.00 30 1011.5
20260831193012 25 95 12.9 27.4 0.00 0.00 0.00 31 1011.7
20260831191553 25 1 12.9 25.7 0.00 0.00 0.00 31 1012.1
20260831190058 24 51 12.9 27.4 0.00 0.00 0.00 32 1012.4
20260831184542 24 90 11.3 27.4 0.00 0.00 0.00 33 1012.6
20260831183033 23 89 17.7 24.1 0.00 0.00 0.00 32 1012.9
20260831181515 23 52 17.7 25.7 0.00 0.00 0.00 33 1013.0
20260831180005 22 45 17.7 25.7 0.00 0.00 0.00 36 1013.2
20260831174602 22 86 17.7 27.4 0.00 0.00 0.00 37 1013.2
20260831173059 22 53 17.7 22.5 0.00 0.00 0.00 40 1013.4
20260831171545 21 39 14.5 24.1 0.00 0.00 0.00 41 1013.7
20260831170042 21 69 19.3 22.5 0.00 0.00 0.00 44 1013.8
20260831164539 20 32 12.9 17.7 0.00 0.00 0.00 46 1014.0
20260831163037 18 85 9.7 14.5 0.00 0.00 0.00 50 1014.1
20260831161529 17 91 8.0 12.9 0.00 0.00 0.00 51 1014.3
20260831160030 17 98 4.8 8.0 0.00 0.00 0.00 53 1014.5
20260831154513 16 89 4.8 9.7 0.00 0.00 0.00 55 1014.6
20260831153003 15 93 4.8 9.7 0.00 0.00 0.00 55 1014.7
20260831151556 16 112 0.0 4.8 0.00 0.00 0.00 58 1014.7
20260831150048 15 190 1.6 3.2 0.00 0.00 0.00 61 1014.6
20260831144532 15 222 0.0 1.6 0.00 0.00 0.00 61 1014.4
20260831143033 15 233 3.2 4.8 0.00 0.00 0.00 62 1014.4
20260831141502 14 345 0.0 1.6 0.00 0.00 0.00 60 1014.1
20260831140100 13 345 0.0 4.8 0.00 0.00 0.00 61 1014.2
20260831134540 12 354 3.2 6.4 0.00 0.00 0.00 65 1014.2
20260831133035 12 227 3.2 4.8 0.00 0.00 0.00 61 1014.2
20260831131517 12 15 0.0 1.6 0.00 0.00 0.00 63 1014.2
20260831130020 12 14 3.2 6.4 0.00 0.00 0.00 64 1014.1
20260831124558 13 336 0.0 14.5 0.00 0.00 0.00 57 1014.0
20260831123057 13 353 12.9 14.5 0.00 0.00 0.00 59 1013.9
20260831121539 15 64 1.6 14.5 0.00 0.00 0.00 56 1014.0
20260831120039 14 4 12.9 19.3 0.00 0.00 0.00 59 1013.7
20260831114518 13 354 14.5 16.1 0.00 0.00 0.00 64 1013.6
20260831113015 13 345 4.8 14.5 0.00 0.00 0.00 60 1013.8
20260831111611 13 18 4.8 6.4 0.00 0.00 0.00 59 1013.8
20260831110134 13 16 4.8 6.4 0.00 0.00 0.00 56 1013.8
20260831104546 13 152 1.6 3.2 0.00 0.00 0.00 60 1013.8
20260831103049 12 150 1.6 3.2 0.00 0.00 0.00 62 1013.8
20260831101546 12 150 0.0 0.0 0.00 0.00 0.00 62 1013.9
20260831100046 12 151 0.0 0.0 0.00 0.00 0.00 61 1013.7
20260831094542 12 151 0.0 1.6 0.00 0.00 0.00 62 1014.0
20260831093041 12 151 0.0 1.6 0.00 0.00 0.00 62 1014.2
20260831091549 13 150 0.0 3.2 0.00 0.00 0.00 56 1014.2
20260831090041 13 151 0.0 3.2 0.00 0.00 0.00 58 1014.2
20260831084538 13 151 1.6 3.2 0.00 0.00 0.00 55 1014.3
20260831083027 13 283 1.6 3.2 0.00 0.00 0.00 57 1014.2
20260831081529 13 85 0.0 1.6 0.00 0.00 0.00 57 1014.1
20260831080028 13 85 1.6 1.6 0.00 0.00 0.00 59 1014.2
20260831074537 14 85 0.0 1.6 0.00 0.00 0.00 58 1014.2
20260831073057 15 85 0.0 0.0 0.00 0.00 0.00 56 1014.2
20260831071526 15 79 0.0 0.0 0.00 0.00 0.00 48 1014.2
20260831070031 17 89 4.8 6.4 0.00 0.00 0.00 44 1014.2
20260831064534 17 313 0.0 4.8 0.00 0.00 0.00 45 1014.2
20260831063014 19 325 3.2 4.8 0.00 0.00 0.00 42 1014.2
20260831061507 20 326 3.2 4.8 0.00 0.00 0.00 41 1014.1
20260831060101 19 320 4.8 4.8 0.00 0.00 0.00 42 1014.0
20260831054551 20 311 0.0 4.8 0.00 0.00 0.00 41 1014.2
20260831053034 20 311 3.2 4.8 0.00 0.00 0.00 41 1014.3
20260831051531 20 307 3.2 4.8 0.00 0.00 0.00 41 1014.3
20260831050033 20 321 3.2 6.4 0.00 0.00 0.00 41 1014.3
20260831044513 20 324 0.0 0.0 0.00 0.00 0.00 41 1014.3
20260831043001 21 323 1.6 6.4 0.00 0.00 0.00 40 1014.2
20260831041503 21 335 3.2 4.8 0.00 0.00 0.00 40 1014.2
20260831040100 20 335 4.8 8.0 0.00 0.00 0.00 40 1014.2
20260831034600 21 342 6.4 8.0 0.00 0.00 0.00 40 1014.2
20260831033059 21 354 4.8 4.8 0.00 0.00 0.00 40 1014.1
20260831031558 21 346 3.2 6.4 0.00 0.00 0.00 40 1014.0
20260831024558 21 45 3.2 4.8 0.00 0.00 0.00 36 1013.8
20260831023039 22 58 6.4 9.7 0.00 0.00 0.00 35 1013.7
20260831021539 22 60 6.4 8.0 0.00 0.00 0.00 34 1013.6
20260831020022 23 90 8.0 14.5 0.00 0.00 0.00 33 1013.5
20260831014522 23 93 14.5 17.7 0.00 0.00 0.00 31 1013.5
20260831013008 25 113 6.4 12.9 0.00 0.00 0.00 25 1013.5
20260831011506 25 198 4.8 12.9 0.00 0.00 0.00 24 1013.4
20260831010007 25 225 8.0 17.7 0.00 0.00 0.00 22 1013.4
20260831004509 26 195 12.9 20.9 0.00 0.00 0.00 23 1013.5
20260831003007 26 207 14.5 22.5 0.00 0.00 0.00 22 1013.5
20260831001508 26 248 17.7 29.0 0.00 0.00 0.00 21 1013.6
20260831000005 26 174 8.0 17.7 0.00 0.00 0.00 21 1013.6
20260830234608 26 217 19.3 27.4 0.00 0.00 0.00 21 1013.8
20260830233104 26 219 17.7 27.4 0.00 0.00 0.00 24 1014.0
20260830231556 25 212 19.3 30.6 0.00 0.00 0.00 25 1014.1
20260830230041 25 191 9.7 20.9 0.00 0.00 0.00 26 1014.3
20260830224538 25 272 11.3 19.3 0.00 0.00 0.00 26 1014.5
20260830223035 24 204 11.3 24.1 0.00 0.00 0.00 30 1014.7
20260830221533 25 188 11.3 24.1 0.00 0.00 0.00 30 1014.9
20260830220053 23 191 8.0 30.6 0.00 0.00 0.00 31 1015.2
20260830214528 23 173 8.0 22.5 0.00 0.00 0.00 34 1015.4
20260830213026 23 139 6.4 20.9 0.00 0.00 0.00 34 1015.6